TimeCDT,TemperatureF,Dew PointF,Humidity,Sea Level PressureIn,VisibilityMPH,Wind Direction,Wind SpeedMPH,Gust SpeedMPH,PrecipitationIn,Events,Conditions,WindDirDegrees,DateUTC
12:15 AM,60.8,53.6,77,30.08,10.0,East,4.6,-,N/A,,Clear,100,2013-07-29 05:15:00
12:35 AM,60.8,51.8,72,30.08,10.0,East,4.6,-,N/A,,Clear,100,2013-07-29 05:35:00
12:55 AM,60.8,53.6,77,30.08,10.0,East,3.5,-,N/A,,Clear,90,2013-07-29 05:55:00
1:15 AM,60.8,53.6,77,30.08,10.0,East,4.6,-,N/A,,Clear,90,2013-07-29 06:15:00
1:35 AM,59.0,51.8,77,30.08,10.0,East,3.5,-,N/A,,Clear,90,2013-07-29 06:35:00
1:55 AM,59.0,51.8,77,30.09,10.0,East,3.5,-,N/A,,Clear,90,2013-07-29 06:55:00
2:15 AM,57.2,51.8,82,30.08,10.0,SE,4.6,-,N/A,,Clear,130,2013-07-29 07:15:00
2:55 AM,57.2,51.8,82,30.09,10.0,ESE,3.5,-,N/A,,Clear,120,2013-07-29 07:55:00
3:15 AM,57.2,51.8,82,30.10,10.0,Calm,Calm,-,N/A,,Clear,0,2013-07-29 08:15:00
3:35 AM,57.2,51.8,82,30.09,10.0,SE,3.5,-,N/A,,Clear,130,2013-07-29 08:35:00
3:55 AM,57.2,51.8,82,30.09,10.0,ESE,3.5,-,N/A,,Clear,110,2013-07-29 08:55:00
4:15 AM,55.4,51.8,88,30.10,10.0,SE,4.6,-,N/A,,Clear,140,2013-07-29 09:15:00
4:35 AM,57.2,51.8,82,30.09,10.0,ESE,3.5,-,N/A,,Clear,120,2013-07-29 09:35:00
4:55 AM,57.2,51.8,82,30.10,10.0,SSE,4.6,-,N/A,,Clear,150,2013-07-29 09:55:00
5:15 AM,55.4,51.8,88,30.10,10.0,SSE,5.8,-,N/A,,Clear,160,2013-07-29 10:15:00
5:35 AM,55.4,51.8,88,30.10,10.0,SSE,4.6,-,N/A,,Clear,150,2013-07-29 10:35:00
5:55 AM,55.4,51.8,88,30.11,10.0,SE,5.8,-,N/A,,Clear,140,2013-07-29 10:55:00
6:15 AM,55.4,51.8,88,30.11,10.0,Calm,Calm,-,N/A,,Clear,0,2013-07-29 11:15:00
6:35 AM,55.4,51.8,88,30.12,10.0,SE,4.6,-,N/A,,Clear,130,2013-07-29 11:35:00
6:55 AM,57.2,51.8,82,30.12,10.0,ESE,4.6,-,N/A,,Clear,110,2013-07-29 11:55:00
7:15 AM,57.2,51.8,82,30.13,10.0,ESE,4.6,-,N/A,,Clear,120,2013-07-29 12:15:00
7:35 AM,59.0,51.8,77,30.13,10.0,SE,5.8,-,N/A,,Clear,130,2013-07-29 12:35:00
7:55 AM,60.8,53.6,77,30.13,10.0,ESE,6.9,-,N/A,,Clear,120,2013-07-29 12:55:00
8:15 AM,60.8,53.6,77,30.13,10.0,ESE,6.9,-,N/A,,Clear,110,2013-07-29 13:15:00
8:35 AM,62.6,53.6,72,30.13,10.0,SE,6.9,-,N/A,,Clear,130,2013-07-29 13:35:00
8:55 AM,64.4,53.6,68,30.14,10.0,ESE,6.9,-,N/A,,Clear,120,2013-07-29 13:55:00
9:15 AM,66.2,55.4,68,30.14,10.0,SE,5.8,-,N/A,,Clear,130,2013-07-29 14:15:00
9:35 AM,68.0,53.6,60,30.13,10.0,SE,10.4,-,N/A,,Clear,140,2013-07-29 14:35:00
9:55 AM,68.0,55.4,64,30.13,10.0,SE,6.9,-,N/A,,Clear,140,2013-07-29 14:55:00
10:15 AM,68.0,55.4,64,30.12,10.0,ESE,5.8,-,N/A,,Clear,120,2013-07-29 15:15:00
10:35 AM,68.0,55.4,64,30.12,10.0,ESE,10.4,-,N/A,,Clear,120,2013-07-29 15:35:00
10:55 AM,68.0,55.4,64,30.12,10.0,SE,8.1,-,N/A,,Clear,140,2013-07-29 15:55:00
11:15 AM,69.8,55.4,60,30.14,10.0,Variable,6.9,-,N/A,,Mostly Cloudy,0,2013-07-29 16:15:00
11:35 AM,69.8,55.4,60,30.14,10.0,SSE,8.1,-,N/A,,Overcast,150,2013-07-29 16:35:00
11:55 AM,69.8,55.4,60,30.13,10.0,SE,10.4,-,N/A,,Overcast,140,2013-07-29 16:55:00
12:15 PM,69.8,55.4,60,30.13,10.0,SE,9.2,-,N/A,,Overcast,130,2013-07-29 17:15:00
12:35 PM,71.6,55.4,57,30.13,10.0,SE,8.1,-,N/A,,Overcast,140,2013-07-29 17:35:00
12:55 PM,71.6,55.4,57,30.13,10.0,SSE,6.9,-,N/A,,Overcast,150,2013-07-29 17:55:00
1:15 PM,71.6,55.4,57,30.12,10.0,ESE,9.2,-,N/A,,Overcast,120,2013-07-29 18:15:00
1:35 PM,71.6,55.4,57,30.11,10.0,SE,9.2,15.0,N/A,,Overcast,140,2013-07-29 18:35:00
1:55 PM,73.4,55.4,53,30.11,10.0,ESE,11.5,-,N/A,,Mostly Cloudy,120,2013-07-29 18:55:00
2:15 PM,71.6,55.4,57,30.11,10.0,SE,11.5,-,N/A,,Partly Cloudy,130,2013-07-29 19:15:00
2:35 PM,73.4,55.4,53,30.10,10.0,SE,10.4,16.1,N/A,,Partly Cloudy,130,2013-07-29 19:35:00
2:55 PM,73.4,55.4,53,30.11,10.0,SSE,10.4,-,N/A,,Mostly Cloudy,150,2013-07-29 19:55:00
3:15 PM,73.4,55.4,53,30.11,10.0,SE,9.2,-,N/A,,Overcast,140,2013-07-29 20:15:00
3:35 PM,73.4,55.4,53,30.11,10.0,SE,8.1,-,N/A,,Overcast,130,2013-07-29 20:35:00
3:55 PM,73.4,57.2,57,30.10,10.0,SE,8.1,-,N/A,,Mostly Cloudy,130,2013-07-29 20:55:00
4:15 PM,73.4,57.2,57,30.10,10.0,SE,10.4,-,N/A,,Mostly Cloudy,140,2013-07-29 21:15:00
4:35 PM,73.4,57.2,57,30.10,10.0,SE,9.2,-,N/A,,Mostly Cloudy,140,2013-07-29 21:35:00
4:55 PM,73.4,57.2,57,30.10,10.0,SSE,9.2,-,N/A,,Overcast,150,2013-07-29 21:55:00
5:15 PM,71.6,57.2,60,30.10,10.0,SSE,9.2,-,N/A,,Overcast,150,2013-07-29 22:15:00
5:35 PM,71.6,57.2,60,30.10,10.0,SSE,8.1,-,N/A,,Overcast,150,2013-07-29 22:35:00
5:55 PM,73.4,57.2,57,30.10,10.0,SSE,6.9,-,N/A,,Mostly Cloudy,160,2013-07-29 22:55:00
6:15 PM,71.6,59.0,64,30.09,10.0,SSW,10.4,-,N/A,,Mostly Cloudy,200,2013-07-29 23:15:00
6:35 PM,69.8,57.2,64,30.08,10.0,South,11.5,-,N/A,,Scattered Clouds,180,2013-07-29 23:35:00
6:55 PM,69.8,59.0,68,30.09,10.0,SSE,6.9,-,N/A,,Light Drizzle,160,2013-07-29 23:55:00
7:15 PM,68.0,59.0,73,30.08,10.0,SE,8.1,-,N/A,,Mostly Cloudy,140,2013-07-30 00:15:00
7:35 PM,68.0,57.2,68,30.07,10.0,SSE,8.1,-,N/A,,Mostly Cloudy,150,2013-07-30 00:35:00
7:55 PM,68.0,57.2,68,30.07,10.0,South,8.1,-,N/A,,Mostly Cloudy,170,2013-07-30 00:55:00
8:15 PM,66.2,57.2,73,30.08,10.0,SSE,6.9,-,N/A,,Mostly Cloudy,160,2013-07-30 01:15:00
8:35 PM,68.0,57.2,68,30.08,10.0,ESE,6.9,-,N/A,,Overcast,120,2013-07-30 01:35:00
8:55 PM,66.2,57.2,73,30.08,10.0,East,5.8,-,N/A,,Overcast,90,2013-07-30 01:55:00
9:15 PM,66.2,57.2,73,30.09,10.0,ESE,3.5,-,N/A,,Overcast,120,2013-07-30 02:15:00
9:35 PM,66.2,57.2,73,30.09,10.0,SE,4.6,-,N/A,,Overcast,130,2013-07-30 02:35:00
9:55 PM,66.2,57.2,73,30.10,10.0,SE,5.8,-,N/A,,Overcast,130,2013-07-30 02:55:00
10:15 PM,66.2,57.2,73,30.11,10.0,Calm,Calm,-,N/A,,Mostly Cloudy,0,2013-07-30 03:15:00
10:35 PM,66.2,57.2,73,30.11,10.0,ESE,3.5,-,N/A,,Overcast,110,2013-07-30 03:35:00
10:55 PM,66.2,59.0,78,30.11,10.0,Calm,Calm,-,N/A,,Overcast,0,2013-07-30 03:55:00
11:15 PM,66.2,59.0,78,30.11,10.0,Calm,Calm,-,N/A,,Overcast,0,2013-07-30 04:15:00
11:35 PM,66.2,59.0,78,30.11,4.0,Calm,Calm,-,N/A,,Light Drizzle,0,2013-07-30 04:35:00
11:55 PM,64.4,60.8,88,30.10,3.0,ESE,3.5,-,N/A,,Light Drizzle,110,2013-07-30 04:55:00